DMSP 5D-2 F13 DEB, 40414

Orbit data source: Space-Track

DMSP 5D-2 F13 DEB, 40414 is space debris in SSO originally from a launch on Fri, 24 Mar 1995 UTC launched from the Air Force Western Test Range (AFWTR). Debris objects in space refer to the collection of defunct objects orbiting the Earth. Examples of debris include non-operational satellites, rocket bodies, and fragments generated from explosions, collisions, or faulty payload assembly.

Loading next visibility...
Identifier
40414, 1995-015AB
Orbit
SSO
Country
Flag of USUS
Related business
Manufacturer
Unknown
Mission
Spacecraft
Bus & Motor
Unknown
Mass
Unknown
Launch date (UTC)
1995-03-24 (31 years ago)
Launch vehicle
Unknown
Launch site
Air Force Western Test Range (AFWTR)
Object type
Payload
Rocket body
Debris
Shape & HBR
Unknown shape, 0.1 m
Radar Cross Section
Small (<0.1 m²)

Expand to show TLE details & history
Last TLE update: 2 days ago

TLE from 2 days ago
0 DMSP 5D-2 F13 DEB
1 40414U 95015AB  26171.35581766  .00001489  00000-0  56515-3 0  9998
2 40414  98.6240 199.4625 0009479 273.5309  86.4790 14.32541975587733
Epoch: 2026-06-20T08:32Z
TLE epoch observation values (Epoch: 2026-06-20T08:32:22.645Z)
Latitude
-0.00009°
Longitude
162.79654°
Altitude
785.77 km
Speed
7.461 km/s
True Right ascension
13h 17m 51s
True Declination
0° 00' 00"
Sunlit
Object was in daylight at epoch
Visualization orbit readout
Latitude
Unknown
Longitude
Unknown
Altitude
Unknown
Speed
Unknown
Apparent Right ascension
Unknown
Apparent Declination
Unknown
Sunlit
N/A
Visualization observer readout
Local Sidereal Time
15:13:03
Azimuth
Unknown
Elevation
Unknown
Doppler factor
Unknown
Orbital elements
Apogee altitude
787.17 km
Perigee altitude
773.599 km
Semi-major axis
7,158.521 km
Eccentricity
0.00095
Inclination
98.624°
RAAN
199.4625°
Arg. of periapsis
273.5309°
True anomaly
86.58742°
Mean anomaly
86.479°
Eccentric anomaly
86.53321°
Mean motion
3.58351 °/min
Orbital period
100.46 mins
BSTAR
0.00056515
Loading maneuver chart data...
Computing Atmospheric mass density...

Documentation

Showing up to 5 results
|